Content
SEND FEEDBACK

Daily
Averages
Monthly
Summary
Canada

QUEBEC CITY AIRPORT, QUEBEC


Home > North America > Canada > Quebec
Elevation: 244 feet     Latitude: 46 48N     Longitude: 71 23W

WEATHER
 
SELECT A DAY
Number of Records: 196,977;   Date Range: 6/30/96 - 11/22/14
 
SHARE

PRINT THIS DATA

[ ← Previous Day ]
WEATHER ALMANAC - OCTOBER 25, 2013
[ Next Day → ]
[ °C ]   °F
Weather ElementAverageHighLow
Temperature37.7 °F44.6 °F (3:00 pm) (3:10 pm)
Dewpoint30.5 °F34 °F (5:00 pm) (7:00 pm)
Humidity73 %87 % (6:00 pm)55 % (2:00 pm)
Barometer29.06 in30.02 in (10:00 pm) (7:00 pm)
Wind Speed11.5 mph17.3 mph (3:00 pm)
Wind Gust21.9 mph (3:39 pm)
Weather ElementAverage
Visibility22.8 mi
Wind DirectionWSW (242.6 °)

Weather ElementTotal
Precipitation---
Heating Degree Days42.7 (Base 65)
Averaged from 35 records on October 25, 2013
WEATHER CONDITIONS BREAKOUT
WIND DIRECTION BREAKOUT
WEATHER BY HOUR - OCTOBER 25, 2013
[ °C ]   °F
Local TimeTemperatureDewpointHumidityBarometerVisibilityWind DirectionWind SpeedGust SpeedPrecipitationEventsConditions
1:00 AM37.4 °F32.0 °F81 %29.74 in15.0 miWSW (250°)12.7 mphMostly Cloudy
2:00 AM38.0 °F33.0 °F74 %29.75 inWSW (250°)10.4 mph
2:00 AM37.4 °F32.0 °F81 %29.76 in15.0 miWSW (240°)13.8 mphOvercast
3:00 AM37.4 °F30.2 °F75 %29.78 in15.0 miSW (230°)13.8 mphOvercast
4:00 AM37.4 °F30.2 °F75 %29.80 in15.0 miSW (230°)12.7 mphMostly Cloudy
5:00 AM37.4 °F30.2 °F75 %29.83 in15.0 miWSW (240°)15.0 mphMostly Cloudy
5:00 AM37.0 °F32.0 °F75 %29.82 inWSW (240°)9.2 mph
6:00 AM37.4 °F30.2 °F75 %29.85 in15.0 miWSW (240°)11.5 mphOvercast
7:00 AM37.4 °F30.2 °F75 %29.87 in15.0 miWSW (250°)9.2 mphMostly Cloudy
8:00 AM37.4 °F30.2 °F75 %29.90 in30.0 miWSW (250°)11.5 mphMostly Cloudy
8:00 AM37.0 °F31.0 °F72 %29.88 inWSW (250°)9.2 mph
9:00 AM37.4 °F30.2 °F75 %29.92 in30.0 miWSW (240°)13.8 mph19.6 mphMostly Cloudy
10:00 AM39.2 °F30.2 °F70 %29.93 in30.0 miWSW (250°)13.8 mphMostly Cloudy
11:00 AM40.0 °F32.0 °F63 %29.93 inWSW (250°)10.4 mph
11:00 AM39.2 °F32.0 °F75 %29.94 in30.0 miWSW (240°)12.7 mph19.6 mphMostly Cloudy
12:00 PM41.0 °F32.0 °F70 %29.95 in30.0 miWSW (240°)13.8 mph20.7 mphMostly Cloudy
1:00 PM42.8 °F32.0 °F66 %29.95 in30.0 miWest (260°)12.7 mphMostly Cloudy
2:00 PM42.8 °F32.0 °F66 %29.94 in30.0 miWSW (240°)13.8 mphRainLight Rain Showers
2:00 PM44.0 °F33.0 °F55 %29.93 inWSW (250°)8.1 mph
2:37 PM42.8 °F33.8 °F70 %29.94 in30.0 miSW (230°)16.1 mphMostly Cloudy
3:00 PM44.6 °F33.8 °F66 %29.94 in30.0 miSW (230°)17.3 mphMostly Cloudy
3:10 PM0.0 °F0.0 °F30.0 miSW (230°)16.1 mph
3:39 PM42.8 °F32.0 °F66 %29.95 in30.0 miSW (220°)15.0 mph21.9 mphMostly Cloudy
4:00 PM42.8 °F32.0 °F66 %29.96 in30.0 miWSW (250°)10.4 mphRainLight Rain Showers
5:00 PM41.0 °F34.0 °F68 %29.95 inWNW (290°)5.8 mph
5:00 PM41.0 °F33.8 °F76 %29.97 in30.0 miWSW (240°)13.8 mphRainLight Rain Showers
6:00 PM37.4 °F33.8 °F87 %29.98 in30.0 miSW (220°)9.2 mphScattered Clouds
6:18 PM35.6 °F32.0 °F87 %29.98 in15.0 miWSW (250°)6.9 mphScattered Clouds
7:00 PM35.6 °F32.0 °F87 %29.99 in15.0 miSW (220°)6.9 mphPartly Cloudy
8:00 PM38.0 °F30.0 °F65 %29.99 inWSW (240°)6.9 mph
8:00 PM35.6 °F32.0 °F87 %30.00 in15.0 miSW (230°)9.2 mphScattered Clouds
9:00 PM33.8 °F28.4 °F81 %30.01 in15.0 miSW (230°)11.5 mphScattered Clouds
10:00 PM35.6 °F28.4 °F75 %30.02 in15.0 miWSW (240°)10.4 mphMostly Cloudy
11:00 PM37.0 °F29.0 °F63 %30.01 inWest (270°)8.1 mph
11:00 PM37.4 °F26.6 °F65 %30.02 in15.0 miWest (260°)9.2 mphMostly Cloudy
Hourly data recorded from CYQB, located miles away from Quebec City Airport, Quebec







STORIES FROM OUR PARTNERS